Tracking 19564 objects as of 19-Mar-2019
HD Live streaming from Space Station
objects crossing your sky now

FENGYUN 1C DEB

Track FENGYUN 1C DEB now!
10-day predictions


NORAD ID: 30492
Int'l Code: 1999-025AHE
Perigee: 742.5 km
Apogee: 1,002.6 km
Inclination: 102.3 °
Period: 102.3 minutes
Semi major axis: 7243 km
RCS: 0.0164 m2 (small)
Launch date: May 10, 1999
Source: People's Republic of China (PRC)
Launch site: Taiyaun Space Center, China (TSC)

Note: This is SATELLITE DEBRIS
aabbcc
Your satellite tracking list
Your tracking list is empty




NASA's NSSDC Master Catalog

Two Line Element Set (TLE):
1 30492U 99025AHE 19077.82873528  .00001093  00000-0  58834-3 0  9994
2 30492 102.3414 189.8525 0179543 117.5704  39.2309 14.08230135620008
Source of the keplerian elements: AFSPC